FW6834 Weather Reports


Display with metric or nautical units.
time (UTC)temp
F
wind
direction
speed
MPH
gust
MPH
rain 1hr
in
rain 24hr
in
rain mn
in
humidity
%
barometer
mb
20260505223102 53 17 6.0 10.0 0.00 0.00 0.00 70 1049.8
20260505214602 54 89 8.0 8.0 0.00 0.00 0.00 69 1048.8
20260505213102 54 341 5.0 12.0 0.00 0.00 0.00 68 1048.8
20260505212101 55 49 4.0 9.0 0.00 0.00 0.00 67 1048.8
20260505210602 55 77 5.0 9.0 0.00 0.00 0.00 68 1048.4
20260505203603 55 346 6.0 6.0 0.00 0.00 0.00 68 1048.8
20260505202603 55 18 3.0 9.0 0.00 0.00 0.00 69 1048.8
20260505201102 55 178 8.0 8.0 0.00 0.00 0.00 69 1048.1
20260505195603 55 87 2.0 7.0 0.00 0.00 0.00 71 1048.1
20260505194102 55 73 2.0 8.0 0.00 0.00 0.00 72 1048.4
20260505192603 55 107 4.0 8.0 0.00 0.00 0.00 74 1048.4
20260505185602 56 88 3.0 9.0 0.00 0.00 0.00 74 1048.1
20260505184102 57 16 6.0 10.0 0.00 0.00 0.00 73 1047.7
20260505183102 57 344 4.0 6.0 0.00 0.00 0.00 73 1047.7
20260505181602 58 97 6.0 8.0 0.00 0.00 0.00 72 1047.4
20260505180103 57 64 2.0 6.0 0.00 0.00 0.00 73 1047.4
20260505174602 57 115 2.0 7.0 0.00 0.00 0.00 75 1047.1
20260505173102 57 118 2.0 6.0 0.00 0.00 0.00 76 1047.1
20260505171602 57 76 7.0 7.0 0.00 0.00 0.00 76 1046.4
20260505170104 57 356 4.0 8.0 0.00 0.00 0.00 77 1046.4
20260505165102 57 36 2.0 9.0 0.00 0.00 0.00 76 1046.4
20260505163603 58 344 4.0 7.0 0.00 0.00 0.00 77 1045.7
20260505162102 58 1 3.0 8.0 0.00 0.00 0.00 78 1045.4
20260505160602 59 308 3.0 9.0 0.00 0.00 0.00 78 1044.7
20260505152103 62 28 10.0 10.0 0.00 0.00 0.00 77 1043.3
20260505150603 67 3 5.0 7.0 0.00 0.00 0.00 74 1043.0
20260505140603 68 109 6.0 11.0 0.00 0.00 0.00 81 1041.7
20260505123603 68 81 2.0 3.0 0.00 0.00 0.00 78 1041.3
20260505120603 69 130 0.0 0.0 0.00 0.00 0.00 76 1040.6
20260505115102 70 155 0.0 0.0 0.00 0.00 0.00 73 1040.6
20260505113602 70 100 0.0 1.0 0.00 0.00 0.00 72 1040.0
20260505112102 71 168 0.0 4.0 0.00 0.00 0.00 71 1039.3
20260505110602 71 171 1.0 4.0 0.00 0.00 0.00 70 1039.3
20260505101102 72 135 11.0 13.0 0.00 0.00 0.00 70 1038.6
20260505095602 72 198 12.0 18.0 0.00 0.00 0.00 70 1038.3
20260505094102 72 170 9.0 15.0 0.00 0.00 0.00 70 1038.6
20260505092602 72 185 7.0 11.0 0.00 0.00 0.00 70 1038.3
20260505091102 72 215 9.0 15.0 0.00 0.00 0.00 70 1038.6
20260505085602 73 108 9.0 16.0 0.00 0.00 0.00 70 1038.6
20260505084102 72 319 6.0 14.0 0.00 0.00 0.00 70 1038.6
20260505081102 72 196 7.0 15.0 0.00 0.00 0.00 70 1038.9
20260505075602 73 209 9.0 15.0 0.00 0.00 0.00 70 1038.9
20260505074103 73 194 10.0 13.0 0.00 0.00 0.00 70 1039.3
20260505071103 73 259 9.0 18.0 0.00 0.00 0.00 69 1039.6
20260505065602 73 185 9.0 16.0 0.00 0.00 0.00 69 1040.0
20260505064103 73 338 15.0 16.0 0.00 0.00 0.00 69 1040.0
20260505063102 73 189 8.0 15.0 0.00 0.00 0.00 69 1040.0
20260505061602 73 168 11.0 13.0 0.00 0.00 0.00 69 1040.3
20260505054602 73 200 11.0 16.0 0.00 0.00 0.00 68 1040.6
20260505053102 73 183 14.0 17.0 0.00 0.00 0.00 67 1040.6
20260505051602 74 203 5.0 19.0 0.00 0.00 0.00 67 1040.6
20260505034602 75 149 6.0 17.0 0.00 0.00 0.00 65 1041.3
20260505033102 75 234 11.0 15.0 0.00 0.00 0.00 64 1041.3
20260505031603 76 200 16.0 25.0 0.00 0.00 0.00 63 1041.0
20260505030103 76 133 10.0 14.0 0.00 0.00 0.00 63 1041.0
20260505024602 76 213 16.0 23.0 0.00 0.00 0.00 62 1040.3
20260505023102 76 131 10.0 18.0 0.00 0.00 0.00 61 1040.6
20260505021602 77 101 9.0 18.0 0.00 0.00 0.00 61 1040.3
20260505014603 78 129 13.0 17.0 0.00 0.00 0.00 58 1040.6
20260505013602 78 165 11.0 17.0 0.00 0.00 0.00 57 1040.6
20260505012103 79 206 15.0 18.0 0.00 0.00 0.00 57 1040.6
20260505010602 79 216 16.0 16.0 0.00 0.00 0.00 57 1041.0
20260505005102 79 173 7.0 17.0 0.00 0.00 0.00 55 1041.0
20260505003602 80 222 8.0 15.0 0.00 0.00 0.00 54 1041.0
20260505002102 80 189 9.0 16.0 0.00 0.00 0.00 53 1041.3
20260505000602 81 105 8.0 17.0 0.00 0.00 0.00 52 1041.3
20260504235102 81 185 15.0 19.0 0.00 0.00 0.00 51 1041.3
20260504233602 82 157 8.0 17.0 0.00 0.00 0.00 51 1041.3
20260504230603 82 209 6.0 14.0 0.00 0.00 0.00 50 1042.0
20260504225602 81 197 6.0 19.0 0.00 0.00 0.00 50 1042.0
20260504224102 81 187 10.0 15.0 0.00 0.00 0.00 49 1042.3